Location: La Bastide
(43.1661°N, 1.2755°E)
Time: 05:36:35
(UTC+00:00)

Cosmos 1953 Rocket - Pass Details

Date: 26 March 2026
Orbit: 599 x 626 km, 82.5° (Epoch: 15 April)

Event Time Altitude Azimuth Distance (km) Brightness Sun altitude
Rises 03:14:01 0° 11° (NNE) 2,905 7.6 -27.3°
Reaches altitude 10° 03:17:31 10° 41° (NE) 1,998 7.1 -26.8°
Maximum altitude 03:19:29 13° 67° (ENE) 1,824 6.9 -26.4°
Drops below altitude 10° 03:21:26 10° 94° (E) 1,997 6.8 -26.1°
Sets 03:24:55 0° 123° (ESE) 2,900 7.3 -25.6°
